[Iaude] MPEC N29: 2024 NF [a=2.50,e=0.72,i=2.2,H=23.5]
    mpec at cfa.harvard.edu 
    mpec at cfa.harvard.edu
       
    Thu Jul  4 09:58:23 EDT 2024
    
    
  
M.P.E.C. 2024-N29                                  Issued 2024 July 4, 13:56 UT
     The Minor Planet Electronic Circulars contain information on unusual
         minor planets, routine data on comets and natural satellites,
         and occasional editorial announcements.  They are published
    on behalf of Division F of the International Astronomical Union by the
          Minor Planet Center, Smithsonian Astrophysical Observatory,
                          Cambridge, MA 02138, U.S.A.
			  
             Prepared using the Tamkin Foundation Computer Network
                              MPC at CFA.HARVARD.EDU
            URL https://www.minorplanetcenter.net/    ISSN 1523-6714
                                    2024 NF                                     
Observations:
     K24N00F* C2024 07 02.52164820 00 47.672-14 19 58.82         21.23wXEN029F52
     K24N00F  C2024 07 02.53487320 00 49.571-14 19 43.68         21.32wXEN029F52
     K24N00F  C2024 07 02.54804920 00 51.482-14 19 28.40         21.22wXEN029F52
     K24N00F |C2024 07 03.08739020 02 26.130-14 08 11.30         20.9 GVEN029807
     K24N00F |C2024 07 03.09291020 02 27.050-14 08 03.90         20.7 GVEN029807
     K24N00F |C2024 07 03.09844020 02 27.960-14 07 58.30         21.0 GVEN029807
     K24N00F 3C2024 07 03.38101920 03 17.646-14 02 53.62         20.81GVEN029T14
     K24N00F 3C2024 07 03.38199720 03 17.810-14 02 52.40         20.83GVEN029T14
     K24N00F 3C2024 07 03.38297320 03 17.968-14 02 51.26         20.68GVEN029T14
     K24N00F KC2024 07 03.53038720 03 43.608-13 58 51.56         20.6 GVEN029474
     K24N00F KC2024 07 03.54123520 03 45.446-13 58 37.60         20.8 GVEN029474
     K24N00F KC2024 07 03.54485220 03 46.061-13 58 33.06         20.8 GVEN029474
     K24N00F KC2024 07 03.54846920 03 46.654-13 58 28.34         20.9 GVEN029474
     K24N00F KC2024 07 03.95887320 05 04.82 -13 50 37.5          20.0 GUEN029L06
     K24N00F KC2024 07 03.96040120 05 05.12 -13 50 35.7          20.2 GUEN029L06
     K24N00F KB2024 07 03.97470820 05 08.19 -13 50 14.8                XEN029958
     K24N00F KB2024 07 03.98886120 05 10.79 -13 49 55.3          19.9 GXEN029958
     K24N00F KB2024 07 04.00301120 05 13.27 -13 49 37.1          19.6 GXEN029958
Observer details:
474 Mount John Observatory, Lake Tekapo.  Observers A. C. Gilmore, P. M.
    Kilmartin.  Measurer P. M. Kilmartin.  0.6-m f/6.3 Reflector + CCD.
807 Cerro Tololo Observatory, La Serena.  Observers T. Linder, R. Holmes.
    0.61-m f/6.8 Ritchey-Chretien + CCD.
958 Observatoire de Dax.  Observer P. Dupouy.  0.50-m f/4.5 Reflector + CMO.
F52 Pan-STARRS 2, Haleakala.  Observers J. Herman, T. Lowe, P. Minguez, A.
    Schultz, I. Smith.  Measurers K. Chambers, T. de Boer, J. Fairlamb, H.
    Gao, M. Huber, C.-C. Lin, E. Magnier, Y. Ramanjooloo, R. Wainscoat, R.
    Weryk.  1.8-m Ritchey-Chretien + CCD.
L06 Sormano 2 Observatory, Bellagio Via Lattea.  Observer G. Ventre.  Measurer
    P. Sicoli.  0.36m Schmidt Cassegrain + CCD.
T14 Canada-France-Hawaii Telescope, Maunakea.  Observers R. Wainscoat, H.
    Januszewski, V. Khatu.  Measurers R. Weryk, R. Wainscoat.  3.6-m f/4.1
    reflector + CCD.
Orbital elements:
2024 NF                                                  Earth MOID = 0.0076 AU
Epoch 2024 Mar. 31.0 TT = JDT 2460400.5                 MPC                     
M 321.58567              (2000.0)            P               Q                  
n   0.25005156     Peri.  245.54250     +0.97074962     -0.23815874             
a   2.4952630      Node   128.22100     +0.23191670     +0.89733876             
e   0.7246279      Incl.    2.21934     +0.06212751     +0.37156906             
P   3.94           H   23.52          G   0.15           U   8                  
Residuals in seconds of arc
240702 F52  0.0   0.0     240703 T14  0.0   0.2+    240703 474  0.2-  0.0
240702 F52  0.0   0.0     240703 T14  0.0   0.2+    240703 L06  0.7-  0.2-
240702 F52  0.1+  0.0     240703 T14  0.0   0.2+    240703 L06  0.3-  0.4-
240703 807  0.2-  0.2-    240703 474  0.2-  0.2-    240703 958  0.1+  0.4-
240703 807  0.0   0.8+    240703 474  0.0   0.0     240703 958  0.9+  0.2+
240703 807  0.1+  0.0     240703 474  0.1+  0.1-    240704 958  0.0   0.6-
Ephemeris:
2024 NF                  a,e,i = 2.50, 0.72, 2                   q = 0.6871
Date    TT    R. A. (2000) Decl.     Delta      r    Elong.  Phase     V
2024 06 04    19 24 48.2 -18 03 25   0.5696  1.5097   143.2    23.7    24.3
...
2024 06 19    19 38 56.4 -16 45 03   0.3540  1.3428   153.8    19.5    22.9
...
2024 06 27    19 49 18.5 -15 37 55   0.2493  1.2518   158.5    17.3    21.9
...
2024 07 03    20 02 08.3 -14 10 16   0.1750  1.1832   160.6    16.6    21.0
2024 07 04    20 05 11.7 -13 48 57   0.1630  1.1717   160.6    16.7    20.8
2024 07 05    20 08 40.7 -13 24 28   0.1510  1.1603   160.6    16.9    20.6
...
2024 07 11    20 48 13.1 -08 33 05   0.08220 1.0918   155.2    23.0    19.4
...
2024 07 19    03 01 18.4 +27 48 11   0.03698 1.0018    66.1   112.0    20.7
...
2024 08 03    06 50 20.2 +21 24 41   0.2007  0.8451    29.2   144.2    27.1
A. U. Tomatic                (C) Copyright 2024 MPC           M.P.E.C. 2024-N29
    
    
More information about the Iaude
mailing list